• In Romania
  • List of Countries
  • For 7 days
  • Water Temperature
  • Satellite Maps
  • Weather Map
  • Weather Widgets
  • user-avatar
    Login

    Hourly Weather Bregenz

    Today, 22 November, Wednesday

    Time Temperature Precipitation Wind Pressure Humidity
    00:00 -1°C° 0 mm 2 mps 644 mmHg 78%
    01:00 -1°C° 0 mm 3 mps 644 mmHg 78%
    02:00 -2°C° 0 mm 3 mps 644 mmHg 77%
    03:00 -2°C° 0 mm 2 mps 644 mmHg 76%
    04:00 -2°C° 0 mm 2 mps 644 mmHg 75%
    05:00 -2°C° 0 mm 2 mps 644 mmHg 74%
    06:00 -2°C° 0 mm 2 mps 643 mmHg 74%
    07:00 -1°C° 0 mm 3 mps 643 mmHg 72%
    08:00 0°C° 0 mm 3 mps 644 mmHg 73%
    09:00 +2°C° 0 mm 2 mps 644 mmHg 73%
    10:00 +3°C° 0 mm 2 mps 644 mmHg 74%
    11:00 +4°C° 0 mm 2 mps 644 mmHg 75%
    12:00 +6°C° 0 mm 2 mps 644 mmHg 76%
    13:00 +7°C° 0 mm 2 mps 644 mmHg 74%
    14:00 +6°C° 0 mm 2 mps 644 mmHg 75%
    15:00 +5°C° 0 mm 2 mps 644 mmHg 76%
    16:00 +4°C° 0 mm 2 mps 643 mmHg 77%
    17:00 +2°C° 0 mm 2 mps 643 mmHg 76%
    18:00 +1°C° 0 mm 2 mps 643 mmHg 76%
    19:00 -1°C° 0 mm 2 mps 643 mmHg 75%
    20:00 -1°C° 0 mm 2 mps 642 mmHg 75%
    21:00 -1°C° 0 mm 3 mps 642 mmHg 75%
    22:00 -2°C° 0 mm 3 mps 642 mmHg 75%
    23:00 -2°C° 0 mm 3 mps 642 mmHg 75%

    Tomorrow, 23 November, Thursday

    Time Temperature Precipitation Wind Pressure Humidity
    00:00 -2°C° 0 mm 3 mps 642 mmHg 75%
    01:00 -2°C° 0 mm 3 mps 642 mmHg 75%
    02:00 -2°C° 0 mm 3 mps 642 mmHg 76%
    03:00 -2°C° 0 mm 3 mps 642 mmHg 76%
    04:00 -2°C° 0 mm 3 mps 642 mmHg 77%
    05:00 -2°C° 0 mm 3 mps 642 mmHg 77%
    06:00 -4°C° 0 mm 3 mps 642 mmHg 77%
    07:00 -4°C° 0 mm 3 mps 642 mmHg 78%
    08:00 -1°C° 0 mm 3 mps 643 mmHg 77%
    09:00 0°C° 0 mm 3 mps 643 mmHg 76%
    10:00 +1°C° 0 mm 3 mps 644 mmHg 75%
    11:00 +4°C° 0 mm 2 mps 644 mmHg 75%
    12:00 +5°C° 0 mm 2 mps 644 mmHg 76%
    13:00 +6°C° 0 mm 2 mps 644 mmHg 76%
    14:00 +5°C° 0 mm 2 mps 644 mmHg 77%
    15:00 +5°C° 0 mm 2 mps 644 mmHg 78%
    16:00 +4°C° 0 mm 2 mps 644 mmHg 80%
    17:00 +3°C° 0 mm 2 mps 644 mmHg 79%
    18:00 +2°C° 0 mm 2 mps 644 mmHg 79%
    19:00 +1°C° 0 mm 2 mps 645 mmHg 79%
    20:00 +1°C° 0 mm 2 mps 645 mmHg 77%
    21:00 -1°C° 0 mm 2 mps 645 mmHg 76%
    22:00 -1°C° 0 mm 2 mps 645 mmHg 75%
    23:00 -1°C° 0 mm 2 mps 645 mmHg 75%

    Day after tomorrow, 24 November, Friday

    Time Temperature Precipitation Wind Pressure Humidity
    00:00 -1°C° 0 mm 2 mps 645 mmHg 74%
    01:00 -1°C° 0 mm 2 mps 645 mmHg 73%
    02:00 -1°C° 0 mm 2 mps 645 mmHg 73%
    03:00 -2°C° 0 mm 2 mps 645 mmHg 73%
    04:00 -2°C° 0 mm 2 mps 645 mmHg 73%
    05:00 -2°C° 0 mm 2 mps 645 mmHg 73%
    06:00 -2°C° 0 mm 3 mps 645 mmHg 73%
    07:00 -2°C° 0 mm 3 mps 645 mmHg 73%
    08:00 0°C° 0 mm 3 mps 645 mmHg 72%
    09:00 +1°C° 0 mm 3 mps 645 mmHg 72%
    10:00 +2°C° 0 mm 3 mps 645 mmHg 71%
    11:00 +4°C° 0 mm 2 mps 645 mmHg 71%
    12:00 +6°C° 0 mm 2 mps 646 mmHg 71%
    13:00 +7°C° 0 mm 2 mps 646 mmHg 72%
    14:00 +6°C° 0 mm 2 mps 646 mmHg 75%
    15:00 +5°C° 0 mm 2 mps 645 mmHg 78%
    16:00 +4°C° 0 mm 2 mps 645 mmHg 82%
    17:00 +3°C° 0.1 mm 2 mps 645 mmHg 83%
    18:00 +3°C° 0.1 mm 2 mps 645 mmHg 84%
    19:00 +2°C° 0.1 mm 2 mps 645 mmHg 85%
    20:00 +2°C° 0.1 mm 2 mps 645 mmHg 85%
    21:00 +2°C° 0.1 mm 2 mps 645 mmHg 84%
    22:00 +1°C° 0.1 mm 2 mps 645 mmHg 84%
    23:00 +1°C° 0 mm 2 mps 644 mmHg 84%

    25 November, Saturday

    Time Temperature Precipitation Wind Pressure Humidity
    00:00 +1°C° 0 mm 2 mps 644 mmHg 83%
    01:00 -1°C° 0 mm 3 mps 643 mmHg 83%
    02:00 -1°C° 0 mm 3 mps 643 mmHg 83%
    03:00 -1°C° 0 mm 3 mps 642 mmHg 83%
    04:00 -1°C° 0 mm 3 mps 642 mmHg 83%
    05:00 0°C° 0 mm 3 mps 641 mmHg 83%
    06:00 0°C° 0 mm 3 mps 641 mmHg 83%
    07:00 0°C° 0 mm 3 mps 641 mmHg 83%
    08:00 +1°C° 0.2 mm 3 mps 641 mmHg 83%
    09:00 +2°C° 0.2 mm 3 mps 641 mmHg 83%
    10:00 +3°C° 0.2 mm 4 mps 641 mmHg 83%
    11:00 +1°C° 1.1 mm 4 mps 641 mmHg 87%
    12:00 +1°C° 1.1 mm 4 mps 641 mmHg 90%
    13:00 +1°C° 1.1 mm 4 mps 641 mmHg 94%
    14:00 0°C° 0.8 mm 5 mps 642 mmHg 91%
    15:00 -2°C° 0.8 mm 6 mps 642 mmHg 89%
    16:00 -3°C° 0.8 mm 7 mps 643 mmHg 87%
    17:00 -4°C° 0.3 mm 6 mps 643 mmHg 88%
    18:00 -5°C° 0.3 mm 6 mps 644 mmHg 89%
    19:00 -6°C° 0.3 mm 5 mps 644 mmHg 90%
    20:00 -7°C° 0.1 mm 4 mps 645 mmHg 91%
    21:00 -6°C° 0.1 mm 3 mps 645 mmHg 92%
    22:00 -7°C° 0.1 mm 3 mps 646 mmHg 93%
    23:00 -6°C° 0 mm 2 mps 646 mmHg 93%

    26 November, Sunday

    Time Temperature Precipitation Wind Pressure Humidity
    00:00 -7°C° 0 mm 2 mps 646 mmHg 94%
    01:00 -7°C° 0 mm 2 mps 646 mmHg 94%
    02:00 -8°C° 0 mm 2 mps 646 mmHg 93%
    03:00 -7°C° 0 mm 1 mps 646 mmHg 92%
    04:00 -8°C° 0 mm 1 mps 646 mmHg 92%
    05:00 -8°C° 0 mm 1 mps 646 mmHg 91%
    06:00 -8°C° 0 mm 1 mps 646 mmHg 89%
    07:00 -8°C° 0 mm 1 mps 646 mmHg 88%
    08:00 -8°C° 0 mm 2 mps 647 mmHg 84%
    09:00 -7°C° 0 mm 2 mps 647 mmHg 79%
    10:00 -6°C° 0 mm 2 mps 648 mmHg 75%
    11:00 -6°C° 0 mm 3 mps 648 mmHg 73%
    12:00 -6°C° 0 mm 3 mps 648 mmHg 71%
    13:00 -5°C° 0 mm 3 mps 648 mmHg 68%
    14:00 -6°C° 0.1 mm 3 mps 648 mmHg 71%
    15:00 -6°C° 0.1 mm 3 mps 648 mmHg 74%
    16:00 -6°C° 0.1 mm 3 mps 648 mmHg 76%
    17:00 -7°C° 0.1 mm 3 mps 648 mmHg 79%
    18:00 -7°C° 0.1 mm 3 mps 648 mmHg 82%
    19:00 -8°C° 0.1 mm 3 mps 649 mmHg 85%
    20:00 -8°C° 0.1 mm 3 mps 649 mmHg 85%
    21:00 -8°C° 0.1 mm 3 mps 649 mmHg 85%
    22:00 -8°C° 0.1 mm 3 mps 649 mmHg 85%
    23:00 -8°C° 0.1 mm 3 mps 649 mmHg 84%

    27 November, Monday

    Time Temperature Precipitation Wind Pressure Humidity
    00:00 -8°C° 0.1 mm 3 mps 649 mmHg 83%
    01:00 -8°C° 0.1 mm 3 mps 649 mmHg 82%
    02:00 -8°C° 0.2 mm 3 mps 649 mmHg 82%
    03:00 -8°C° 0.2 mm 3 mps 649 mmHg 83%
    04:00 -8°C° 0.2 mm 3 mps 649 mmHg 83%
    05:00 -8°C° 0.1 mm 3 mps 649 mmHg 85%
    06:00 -8°C° 0.1 mm 3 mps 649 mmHg 86%
    07:00 -7°C° 0.1 mm 2 mps 649 mmHg 87%
    08:00 -8°C° 0.1 mm 3 mps 649 mmHg 85%
    09:00 -7°C° 0.1 mm 3 mps 650 mmHg 83%
    10:00 -6°C° 0.1 mm 3 mps 650 mmHg 81%
    11:00 -6°C° 0 mm 3 mps 650 mmHg 78%
    12:00 -5°C° 0 mm 3 mps 649 mmHg 75%
    13:00 -4°C° 0 mm 4 mps 649 mmHg 73%
    14:00 -5°C° 0 mm 3 mps 649 mmHg 75%
    15:00 -5°C° 0 mm 3 mps 649 mmHg 78%
    16:00 -6°C° 0 mm 3 mps 649 mmHg 81%
    17:00 -6°C° 0 mm 3 mps 648 mmHg 82%
    18:00 -6°C° 0 mm 2 mps 648 mmHg 83%
    19:00 -7°C° 0 mm 2 mps 648 mmHg 85%
    20:00 -7°C° 0.1 mm 2 mps 648 mmHg 84%
    21:00 -8°C° 0.1 mm 3 mps 647 mmHg 82%
    22:00 -8°C° 0.1 mm 3 mps 647 mmHg 81%
    23:00 -7°C° 0.4 mm 3 mps 647 mmHg 82%
    Show more